Weather History for KCNK - September, 2012

Change the Weather History Date:

Sunday, September 16, 2012

  Actual Average Record
Temperature  
Mean Temperature 67 °F 68 °F  
Max Temperature 76 °F 80 °F 104 °F (1895)
Min Temperature 58 °F 56 °F 36 °F (1903)
Degree Days  
Heating Degree Days 0 2  
Month to date heating degree days 20 18  
Since 1 July heating degree days 20 21  
Cooling Degree Days 2 5  
Month to date cooling degree days 106 114  
Year to date cooling degree days 1628 1280  
Growing Degree Days 16 (Base 50)    
Moisture  
Dew Point 59 °F    
Average Humidity 77    
Maximum Humidity 100    
Minimum Humidity 54    
Precipitation  
Precipitation 0.00 in 0.10 in 1.44 in (1968)
Month to date precipitation 1.04 1.56  
Year to date precipitation 19.29 22.66  
Snow  
Snow 0.00 in 0.00 in 0.00 in ()
Month to date snowfall 0.0 0.0  
Year to date snowfall 5.8 13.7  
Since 1 July snowfall 0.0 0.0  
Snow Depth 0.00 in    
Sea Level Pressure  
Sea Level Pressure 30.02 in    
Wind  
Wind Speed 7 mph (SSW)    
Max Wind Speed 15 mph    
Max Gust Speed 20 mph    
Visibility 9 miles    
Events      
T = Trace of Precipitation, MM = Missing Value Source: NWS Daily Summary

Daily Weather History Graph

Daily Weather History Graph

Search for Another Location

Airport or City:

Trip Planner

Search our weather history database for the weather conditions in past years. The results will help you decide how hot, cold, wet, or windy it might be!

Date:

Astronomy

Sep. 16, 2012 Rise Set
Actual Time 7:13 AM CDT 7:36 PM CDT
Civil Twilight 6:46 AM CDT 8:03 PM CDT
Nautical Twilight 6:14 AM CDT 8:35 PM CDT
Astronomical Twilight 5:42 AM CDT 9:07 PM CDT
Moon 7:53 AM CDT (9/16) 7:42 PM CDT (9/16)
Length of Visible Light 13h 17m
Length of Day
12h 23m
New Moon, 0% of the Moon is Illuminated
Sep 16
New Moon
Sep 22
First Quarter
Sep 29
Full
Oct 8
Last Quarter
Oct 15
New

Hourly Weather History & Observations

Time (CDT) Temp. Dew Point Humidity Pressure Visibility Wind Dir Wind Speed Gust Speed Precip Events Conditions
12:55 AM 59.0 °F 57.9 °F 96% 30.08 in 6.0 mi South 3.5 mph - N/A   Clear
1:55 AM 59.0 °F 59.0 °F 100% 30.07 in 6.0 mi South 9.2 mph - N/A   Clear
2:23 AM 59.0 °F 59.0 °F 100% 30.09 in 2.5 mi South 9.2 mph - N/A   Scattered Clouds
2:25 AM 59.0 °F 59.0 °F 100% 30.09 in 1.5 mi South 9.2 mph - N/A   Scattered Clouds
2:28 AM 59.0 °F 59.0 °F 100% 30.09 in 0.8 mi South 9.2 mph - N/A   Mist
2:45 AM 60.8 °F 60.8 °F 100% 30.08 in 1.5 mi SSW 6.9 mph - N/A   Overcast
2:48 AM 60.8 °F 59.0 °F 94% 30.08 in 3.0 mi SSW 9.2 mph - N/A   Overcast
2:55 AM 60.1 °F 59.0 °F 96% 30.06 in 6.0 mi SSW 8.1 mph - N/A   Overcast
3:45 AM 59.0 °F 57.2 °F 94% 30.07 in 10.0 mi SSW 6.9 mph - N/A   Mostly Cloudy
3:55 AM 60.1 °F 59.0 °F 96% 30.05 in 10.0 mi SSW 8.1 mph - N/A   Mostly Cloudy
4:16 AM 60.8 °F 59.0 °F 94% 30.07 in 10.0 mi SW 8.1 mph - N/A   Overcast
4:51 AM 60.8 °F 59.0 °F 94% 30.07 in 10.0 mi SW 3.5 mph - N/A   Overcast
4:55 AM 61.0 °F 59.0 °F 93% 30.04 in 10.0 mi SW 4.6 mph - N/A   Overcast
5:55 AM 61.0 °F 59.0 °F 93% 30.04 in 10.0 mi WSW 3.5 mph - N/A   Overcast
6:38 AM 60.8 °F 59.0 °F 94% 30.07 in 10.0 mi West 3.5 mph - N/A   Overcast
6:55 AM 61.0 °F 59.0 °F 93% 30.04 in 10.0 mi Calm Calm - N/A   Overcast
7:55 AM 61.0 °F 59.0 °F 93% 30.05 in 10.0 mi Calm Calm - N/A   Overcast
8:18 AM 60.8 °F 57.2 °F 88% 30.08 in 10.0 mi WSW 4.6 mph - N/A   Overcast
8:55 AM 61.0 °F 59.0 °F 93% 30.06 in 10.0 mi Calm Calm - N/A   Overcast
9:03 AM 60.8 °F 59.0 °F 94% 30.08 in 10.0 mi WSW 4.6 mph - N/A   Overcast
9:55 AM 61.0 °F 59.0 °F 93% 30.06 in 10.0 mi South 3.5 mph - N/A   Overcast
10:55 AM 63.0 °F 59.0 °F 87% 30.06 in 10.0 mi SSE 5.8 mph - N/A   Overcast
11:55 AM 64.9 °F 59.0 °F 81% 30.04 in 10.0 mi SW 5.8 mph - N/A   Overcast
12:06 PM 66.2 °F 59.0 °F 78% 30.06 in 10.0 mi SSE 5.8 mph - N/A   Overcast
12:46 PM 69.8 °F 60.8 °F 73% 30.04 in 10.0 mi South 9.2 mph - N/A   Scattered Clouds
12:55 PM 68.0 °F 60.1 °F 76% 30.02 in 10.0 mi SSE 8.1 mph - N/A   Scattered Clouds
1:55 PM 71.1 °F 59.0 °F 66% 30.00 in 10.0 mi South 8.1 mph - N/A   Clear
2:55 PM 75.0 °F 57.9 °F 55% 29.97 in 10.0 mi South 4.6 mph - N/A   Partly Cloudy
3:55 PM 75.0 °F 57.0 °F 53% 29.94 in 10.0 mi South 5.8 mph 17.3 mph N/A   Clear
4:55 PM 75.9 °F 57.9 °F 54% 29.91 in 10.0 mi South 12.7 mph - N/A   Partly Cloudy
5:55 PM 73.9 °F 57.0 °F 55% 29.91 in 10.0 mi South 11.5 mph - N/A   Clear
6:55 PM 71.1 °F 57.0 °F 61% 29.91 in 10.0 mi South 6.9 mph - N/A   Clear
7:55 PM 64.0 °F 55.9 °F 75% 29.91 in 10.0 mi SSE 5.8 mph - N/A   Clear
8:55 PM 62.1 °F 57.0 °F 84% 29.91 in 10.0 mi South 6.9 mph - N/A   Clear
9:55 PM 63.0 °F 57.9 °F 84% 29.91 in 10.0 mi SSE 9.2 mph - N/A   Clear
10:55 PM 64.0 °F 57.9 °F 80% 29.91 in 10.0 mi South 12.7 mph - N/A   Clear
11:55 PM 64.0 °F 57.0 °F 78% 29.90 in 10.0 mi South 12.7 mph - N/A   Clear